Weather History for Andalusia, AL

Change the Weather History Date:

Tuesday, December 11, 2012

  Actual Average (KCEW) Record (KCEW)
Temperature  
Mean Temperature 48 °F -  
Max Temperature 53 °F 65 °F 78 °F (2007)
Min Temperature 43 °F 39 °F 24 °F (1950)
Degree Days  
Heating Degree Days 17    
Moisture  
Dew Point 40 °F    
Average Humidity 73    
Maximum Humidity 83    
Minimum Humidity 61    
Precipitation  
Precipitation 0.00 in - - ()
Sea Level Pressure  
Sea Level Pressure 30.03 in    
Wind  
Wind Speed 8 mph (NNE)    
Max Wind Speed 13 mph    
Max Gust Speed 17 mph    
Visibility 9 miles    
Events Rain    
Averages and records for this station are not official NWS values.
T = Trace of Precipitation, MM = Missing Value Source: NWS Daily Summary

Daily Weather History Graph

Daily Weather History Graph

Search for Another Location

Airport:

Trip Planner

Search our weather history database for the weather conditions in past years. The results will help you decide how hot, cold, wet, or windy it might be!

Date:

Astronomy

Dec. 11, 2012 Rise Set
Actual Time 6:34 AM CST 4:43 PM CST
Civil Twilight 6:07 AM CST 5:10 PM CST
Nautical Twilight 5:37 AM CST 5:40 PM CST
Astronomical Twilight 5:08 AM CST 6:10 PM CST
Moon 4:32 AM CST (12/11) 3:19 PM CST (12/11)
Length of Visible Light 11h 02m
Length of Day
10h 08m
Waning Crescent, 4% of the Moon is Illuminated
Dec 11
Waning Crescent
Dec 13
New
Dec 19
First Quarter
Dec 28
Full
Jan 4
Last Quarter

Hourly Weather History & Observations

Time (CST) Temp. Windchill Dew Point Humidity Pressure Visibility Wind Dir Wind Speed Gust Speed Precip Events Conditions
12:11 AM 53.6 °F - 46.4 °F 77% 29.92 in 10.0 mi NNE 6.9 mph - N/A   Overcast
12:56 AM 52.0 °F - 46.0 °F 80% 29.91 in 10.0 mi North 12.7 mph - N/A   Overcast
1:05 AM 51.8 °F - 46.4 °F 82% 29.92 in 10.0 mi North 9.2 mph - N/A   Overcast
1:56 AM 50.0 °F - 44.1 °F 80% 29.92 in 10.0 mi NNW 8.1 mph - N/A   Overcast
2:56 AM 50.0 °F - 44.1 °F 80% 29.93 in 9.0 mi North 9.2 mph - N/A   Overcast
3:56 AM 48.9 °F - 44.1 °F 83% 29.93 in 5.0 mi North 10.4 mph - N/A   Haze
4:56 AM 48.0 °F - 42.1 °F 80% 29.95 in 9.0 mi North 9.2 mph - N/A   Overcast
5:56 AM 48.0 °F - 42.1 °F 80% 29.98 in 9.0 mi North 8.1 mph - N/A   Overcast
6:18 AM 48.2 °F - 42.8 °F 82% 29.99 in 9.0 mi North 6.9 mph - N/A   Overcast
6:56 AM 48.0 °F - 41.0 °F 77% 30.02 in 10.0 mi North 11.5 mph 17.3 mph N/A   Overcast
7:56 AM 46.9 °F - 39.0 °F 74% 30.01 in 9.0 mi NNE 6.9 mph 16.1 mph N/A   Overcast
8:56 AM 48.0 °F - 39.0 °F 71% 30.05 in 9.0 mi NNE 8.1 mph - N/A   Overcast
9:56 AM 48.0 °F - 39.0 °F 71% 30.06 in 8.0 mi North 9.2 mph - N/A   Overcast
10:34 AM 48.2 °F - 39.2 °F 71% 30.06 in 9.0 mi North 9.2 mph - N/A   Overcast
10:56 AM 48.9 °F - 39.0 °F 69% 30.07 in 9.0 mi North 6.9 mph - N/A   Overcast
11:05 AM 48.2 °F - 39.2 °F 71% 30.07 in 9.0 mi North 6.9 mph - N/A   Overcast
11:56 AM 48.9 °F - 37.9 °F 66% 30.05 in 10.0 mi North 9.2 mph - N/A   Overcast
12:56 PM 50.0 °F - 37.9 °F 63% 30.03 in 10.0 mi North 9.2 mph - N/A   Partly Cloudy
1:56 PM 48.9 °F - 37.0 °F 64% 30.03 in 10.0 mi NNE 11.5 mph - N/A   Clear
2:56 PM 48.9 °F - 36.0 °F 61% 30.04 in 10.0 mi NNE 8.1 mph - N/A   Clear
3:56 PM 48.0 °F - 36.0 °F 63% 30.06 in 10.0 mi ENE 5.8 mph - N/A   Clear
4:56 PM 46.9 °F - 36.0 °F 66% 30.06 in 10.0 mi NNE 5.8 mph - N/A   Partly Cloudy
5:56 PM 45.0 °F 43.5 °F 36.0 °F 71% 30.08 in 10.0 mi North 3.5 mph - N/A   Partly Cloudy
6:56 PM 45.0 °F 42.6 °F 37.0 °F 74% 30.10 in 10.0 mi NNE 4.6 mph - N/A   Clear
7:56 PM 45.0 °F 42.6 °F 36.0 °F 71% 30.13 in 9.0 mi NNE 4.6 mph - N/A   Clear
8:56 PM 45.0 °F 41.2 °F 35.1 °F 68% 30.14 in 10.0 mi NNE 6.9 mph - N/A   Overcast
9:56 PM 44.1 °F 42.5 °F 36.0 °F 73% 30.15 in 10.0 mi ENE 3.5 mph - 0.00 in Rain Light Rain
10:56 PM 43.0 °F 37.7 °F 36.0 °F 76% 30.12 in 9.0 mi East 9.2 mph - 0.00 in Rain Light Rain
11:56 PM 43.0 °F 38.8 °F 35.1 °F 74% 30.13 in 10.0 mi ENE 6.9 mph - 0.00 in   Clear